| time (UTC) | temp F | wind direction | speed MPH | gust MPH | rain 1hr in | rain 24hr in | rain mn in | humidity % | barometer mb |
| 20260505121717 | 68 | 135 | 3.0 | 7.0 | 0.00 | 0.00 | 0.00 | 93 | 1013.4 |
| 20260505120218 | 0 | 0.0 | 0.0 | 0.00 | 0.00 | 0.00 | |||
| 20260505114717 | 68 | 135 | 6.0 | 9.0 | 0.00 | 0.00 | 0.00 | 93 | 1013.3 |
| 20260505113217 | 68 | 135 | 1.0 | 5.0 | 0.00 | 0.00 | 0.00 | 93 | 1013.1 |
| 20260505111718 | 68 | 90 | 1.0 | 3.0 | 0.00 | 0.00 | 0.00 | 92 | 1013.0 |
| 20260505110218 | 68 | 135 | 4.0 | 7.0 | 0.00 | 0.00 | 0.00 | 91 | 1012.9 |
| 20260505101718 | 68 | 90 | 7.0 | 14.0 | 0.00 | 0.00 | 0.00 | 91 | 1012.7 |
| 20260505100218 | 68 | 90 | 4.0 | 9.0 | 0.00 | 0.00 | 0.00 | 90 | 1012.6 |
| 20260505094718 | 68 | 135 | 3.0 | 9.0 | 0.00 | 0.00 | 0.00 | 89 | 1012.5 |
| 20260505093218 | 68 | 135 | 7.0 | 13.0 | 0.00 | 0.00 | 0.00 | 89 | 1012.4 |
| 20260505091717 | 68 | 135 | 7.0 | 11.0 | 0.00 | 0.00 | 0.00 | 90 | 1012.5 |
| 20260505090218 | 0 | 0.0 | 0.0 | 0.00 | 0.00 | 0.00 | |||
| 20260505084718 | 68 | 90 | 7.0 | 14.0 | 0.00 | 0.00 | 0.00 | 88 | 1012.5 |
| 20260505083218 | 68 | 90 | 6.0 | 13.0 | 0.00 | 0.00 | 0.00 | 89 | 1012.5 |
| 20260505081718 | 68 | 90 | 9.0 | 14.0 | 0.00 | 0.00 | 0.00 | 89 | 1012.4 |
| 20260505080218 | 68 | 90 | 7.0 | 13.0 | 0.00 | 0.00 | 0.00 | 90 | 1012.6 |
| 20260505074717 | 68 | 135 | 5.0 | 11.0 | 0.00 | 0.00 | 0.00 | 89 | 1012.7 |
| 20260505073218 | 0 | 0.0 | 0.0 | 0.00 | 0.00 | 0.00 | |||
| 20260505071718 | 68 | 90 | 6.0 | 13.0 | 0.00 | 0.00 | 0.00 | 90 | 1012.9 |
| 20260505070217 | 68 | 90 | 6.0 | 13.0 | 0.00 | 0.00 | 0.00 | 91 | 1013.2 |
| 20260505064717 | 68 | 135 | 6.0 | 11.0 | 0.00 | 0.00 | 0.00 | 92 | 1013.3 |
| 20260505063218 | 68 | 90 | 6.0 | 13.0 | 0.00 | 0.00 | 0.00 | 92 | 1013.4 |
| 20260505061717 | 68 | 135 | 7.0 | 11.0 | 0.00 | 0.00 | 0.00 | 92 | 1013.5 |
| 20260505060219 | 68 | 135 | 7.0 | 11.0 | 0.00 | 0.00 | 0.00 | 93 | 1013.7 |
| 20260505054718 | 67 | 135 | 9.0 | 13.0 | 0.00 | 0.00 | 0.00 | 94 | 1013.9 |
| 20260505053217 | 67 | 90 | 7.0 | 14.0 | 0.00 | 0.00 | 0.00 | 92 | 1014.4 |
| 20260505051717 | 67 | 90 | 7.0 | 13.0 | 0.00 | 0.00 | 0.00 | 91 | 1014.4 |
| 20260505050219 | 67 | 135 | 9.0 | 16.0 | 0.00 | 0.00 | 0.00 | 90 | 1014.5 |
| 20260505041718 | 67 | 135 | 10.0 | 18.0 | 0.00 | 0.00 | 0.00 | 91 | 1014.9 |
| 20260505040218 | 67 | 90 | 9.0 | 16.0 | 0.00 | 0.00 | 0.00 | 92 | 1015.2 |
| 20260505034718 | 67 | 90 | 9.0 | 16.0 | 0.00 | 0.00 | 0.00 | 91 | 1015.3 |
| 20260505033218 | 66 | 135 | 9.0 | 16.0 | 0.00 | 0.00 | 0.00 | 93 | 1015.4 |
| 20260505031717 | 66 | 135 | 8.0 | 13.0 | 0.00 | 0.00 | 0.00 | 92 | 1015.4 |
| 20260505030219 | 66 | 135 | 6.0 | 10.0 | 0.00 | 0.00 | 0.00 | 92 | 1015.7 |
| 20260505024718 | 66 | 135 | 6.0 | 11.0 | 0.00 | 0.00 | 0.00 | 92 | 1015.8 |
| 20260505023218 | 0 | 0.0 | 0.0 | 0.00 | 0.00 | 0.00 | |||
| 20260505021718 | 66 | 135 | 9.0 | 14.0 | 0.00 | 0.00 | 0.00 | 91 | 1015.6 |
| 20260505020219 | 65 | 135 | 8.0 | 14.0 | 0.00 | 0.00 | 0.00 | 91 | 1015.7 |
| 20260505014718 | 66 | 135 | 8.0 | 14.0 | 0.00 | 0.00 | 0.00 | 92 | 1015.8 |
| 20260505013218 | 65 | 90 | 8.0 | 14.0 | 0.00 | 0.00 | 0.00 | 93 | 1015.8 |
| 20260505011718 | 65 | 135 | 8.0 | 14.0 | 0.00 | 0.00 | 0.00 | 93 | 1015.7 |
| 20260505010217 | 65 | 135 | 10.0 | 16.0 | 0.00 | 0.00 | 0.00 | 91 | 1015.6 |
| 20260505004717 | 0 | 0.0 | 0.0 | 0.00 | 0.00 | 0.00 | |||
| 20260505003218 | 66 | 90 | 11.0 | 19.0 | 0.00 | 0.00 | 0.00 | 91 | 1015.3 |
| 20260505001717 | 66 | 90 | 9.0 | 16.0 | 0.00 | 0.00 | 0.00 | 91 | 1015.3 |
| 20260505000219 | 66 | 90 | 11.0 | 19.0 | 0.00 | 0.00 | 0.00 | 90 | 1014.9 |
| 20260504234718 | 66 | 135 | 12.0 | 19.0 | 0.00 | 0.00 | 0.00 | 91 | 1014.7 |
| 20260504233218 | 66 | 90 | 10.0 | 21.0 | 0.00 | 0.00 | 0.00 | 92 | 1014.5 |
| 20260504231717 | 67 | 90 | 8.0 | 14.0 | 0.00 | 0.00 | 0.00 | 92 | 1014.7 |
| 20260504230218 | 67 | 90 | 9.0 | 18.0 | 0.00 | 0.00 | 0.00 | 92 | 1014.6 |
| 20260504224717 | 0 | 0.0 | 0.0 | 0.00 | 0.00 | 0.00 | |||
| 20260504223218 | 67 | 90 | 10.0 | 16.0 | 0.00 | 0.00 | 0.00 | 93 | 1014.4 |
| 20260504221717 | 67 | 135 | 8.0 | 14.0 | 0.00 | 0.00 | 0.00 | 92 | 1014.3 |
| 20260504220217 | 68 | 135 | 11.0 | 18.0 | 0.00 | 0.00 | 0.00 | 86 | 1014.4 |
| 20260504214718 | 68 | 135 | 11.0 | 16.0 | 0.00 | 0.00 | 0.00 | 83 | 1014.3 |
| 20260504213219 | 68 | 90 | 10.0 | 18.0 | 0.00 | 0.00 | 0.00 | 84 | 1013.9 |
| 20260504211718 | 68 | 90 | 9.0 | 16.0 | 0.00 | 0.00 | 0.00 | 83 | 1014.0 |
| 20260504210218 | 68 | 90 | 8.0 | 16.0 | 0.00 | 0.00 | 0.00 | 83 | 1014.1 |
| 20260504204717 | 68 | 90 | 9.0 | 15.0 | 0.00 | 0.00 | 0.00 | 83 | 1014.1 |
| 20260504203217 | 68 | 90 | 10.0 | 16.0 | 0.00 | 0.00 | 0.00 | 83 | 1013.8 |
| 20260504201717 | 69 | 90 | 9.0 | 18.0 | 0.00 | 0.00 | 0.00 | 84 | 1013.9 |
| 20260504200218 | 69 | 90 | 10.0 | 14.0 | 0.00 | 0.00 | 0.00 | 84 | 1014.0 |
| 20260504194717 | 69 | 90 | 10.0 | 16.0 | 0.00 | 0.00 | 0.00 | 84 | 1013.8 |
| 20260504193218 | 70 | 90 | 8.0 | 16.0 | 0.00 | 0.00 | 0.00 | 85 | 1013.8 |
| 20260504191717 | 0 | 0.0 | 0.0 | 0.00 | 0.00 | 0.00 | |||
| 20260504190217 | 70 | 90 | 9.0 | 15.0 | 0.00 | 0.00 | 0.00 | 84 | 1014.1 |
| 20260504184718 | 70 | 90 | 9.0 | 17.0 | 0.00 | 0.00 | 0.00 | 85 | 1014.2 |
| 20260504183219 | 71 | 90 | 9.0 | 16.0 | 0.00 | 0.00 | 0.00 | 87 | 1014.2 |
| 20260504181717 | 0 | 0.0 | 0.0 | 0.00 | 0.00 | 0.00 | |||
| 20260504180219 | 0 | 0.0 | 0.0 | 0.00 | 0.00 | 0.00 | |||
| 20260504174719 | 72 | 90 | 8.0 | 13.0 | 0.00 | 0.00 | 0.00 | 84 | 1014.8 |
| 20260504173217 | 0 | 0.0 | 0.0 | 0.00 | 0.00 | 0.00 | |||
| 20260504171718 | 72 | 90 | 9.0 | 15.0 | 0.00 | 0.00 | 0.00 | 81 | 1015.1 |
| 20260504170218 | 72 | 90 | 14.0 | 24.0 | 0.00 | 0.00 | 0.00 | 80 | 1015.1 |
| 20260504160217 | 72 | 90 | 13.0 | 24.0 | 0.00 | 0.00 | 0.00 | 82 | 1015.6 |
| 20260504150218 | 71 | 90 | 11.0 | 17.0 | 0.00 | 0.00 | 0.00 | 87 | 1016.1 |
| 20260504140219 | 71 | 90 | 10.0 | 16.0 | 0.00 | 0.00 | 0.00 | 88 | 1015.7 |
| 20260504130217 | 0 | 0.0 | 0.0 | 0.00 | 0.00 | 0.00 |